TimeCDT,TemperatureF,Dew PointF,Humidity,Sea Level PressureIn,VisibilityMPH,Wind Direction,Wind SpeedMPH,Gust SpeedMPH,PrecipitationIn,Events,Conditions,WindDirDegrees,DateUTC
12:13 AM,26.6,26.6,100,30.29,10.0,Calm,Calm,-,N/A,,Clear,0,2012-10-30 05:13:00
12:33 AM,26.6,24.8,93,30.29,10.0,Calm,Calm,-,N/A,,Clear,0,2012-10-30 05:33:00
12:52 AM,26.6,24.8,93,30.28,10.0,Calm,Calm,-,N/A,,Clear,0,2012-10-30 05:52:00
1:13 AM,24.8,24.8,100,30.28,10.0,Calm,Calm,-,N/A,,Clear,0,2012-10-30 06:13:00
1:33 AM,24.8,24.8,100,30.28,10.0,Calm,Calm,-,N/A,,Clear,0,2012-10-30 06:33:00
1:52 AM,26.6,24.8,93,30.29,10.0,Calm,Calm,-,N/A,,Clear,0,2012-10-30 06:52:00
2:13 AM,24.8,24.8,100,30.29,10.0,Calm,Calm,-,N/A,,Clear,0,2012-10-30 07:13:00
2:33 AM,23.0,21.2,93,30.29,10.0,Calm,Calm,-,N/A,,Clear,0,2012-10-30 07:33:00
2:52 AM,24.8,23.0,93,30.29,10.0,Calm,Calm,-,N/A,,Clear,0,2012-10-30 07:52:00
3:13 AM,26.6,24.8,93,30.28,10.0,Calm,Calm,-,N/A,,Clear,0,2012-10-30 08:13:00
3:33 AM,24.8,24.8,100,30.28,10.0,Calm,Calm,-,N/A,,Clear,0,2012-10-30 08:33:00
3:52 AM,24.8,23.0,93,30.28,10.0,Calm,Calm,-,N/A,,Clear,0,2012-10-30 08:52:00
4:13 AM,24.8,24.8,100,30.27,10.0,Calm,Calm,-,N/A,,Clear,0,2012-10-30 09:13:00
4:32 AM,24.8,24.8,100,30.27,10.0,Calm,Calm,-,N/A,,Clear,0,2012-10-30 09:32:00
4:53 AM,24.8,23.0,93,30.26,10.0,Calm,Calm,-,N/A,,Clear,0,2012-10-30 09:53:00
5:13 AM,24.8,21.2,86,30.26,10.0,Calm,Calm,-,N/A,,Clear,0,2012-10-30 10:13:00
5:32 AM,24.8,23.0,93,30.26,10.0,Calm,Calm,-,N/A,,Clear,0,2012-10-30 10:32:00
5:53 AM,24.8,21.2,86,30.26,10.0,Calm,Calm,-,N/A,,Clear,0,2012-10-30 10:53:00
6:12 AM,21.2,21.2,100,30.26,10.0,Calm,Calm,-,N/A,,Clear,0,2012-10-30 11:12:00
6:33 AM,24.8,24.8,100,30.26,10.0,Calm,Calm,-,N/A,,Clear,0,2012-10-30 11:33:00
6:53 AM,26.6,26.6,100,30.26,10.0,NE,3.5,-,N/A,,Clear,50,2012-10-30 11:53:00
7:12 AM,26.6,26.6,100,30.26,10.0,NE,3.5,-,N/A,,Clear,40,2012-10-30 12:12:00
7:33 AM,26.6,24.8,93,30.26,10.0,ENE,3.5,-,N/A,,Clear,60,2012-10-30 12:33:00
7:53 AM,26.6,24.8,93,30.26,10.0,NE,3.5,-,N/A,,Clear,50,2012-10-30 12:53:00
8:13 AM,26.6,24.8,93,30.27,10.0,NE,3.5,-,N/A,,Clear,50,2012-10-30 13:13:00
8:33 AM,26.6,24.8,93,30.27,10.0,Calm,Calm,-,N/A,,Clear,0,2012-10-30 13:33:00
8:53 AM,28.4,24.8,86,30.26,10.0,Calm,Calm,-,N/A,,Clear,0,2012-10-30 13:53:00
9:13 AM,28.4,26.6,93,30.26,10.0,ENE,4.6,-,N/A,,Clear,70,2012-10-30 14:13:00
9:32 AM,28.4,24.8,86,30.26,10.0,ENE,5.8,-,N/A,,Clear,60,2012-10-30 14:32:00
9:53 AM,30.2,24.8,80,30.26,10.0,ENE,5.8,-,N/A,,Clear,70,2012-10-30 14:53:00
10:13 AM,30.2,23.0,75,30.26,10.0,ENE,6.9,-,N/A,,Clear,60,2012-10-30 15:13:00
10:32 AM,32.0,21.2,64,30.26,10.0,ENE,6.9,-,N/A,,Clear,70,2012-10-30 15:32:00
10:53 AM,33.8,21.2,60,30.26,10.0,East,6.9,-,N/A,,Clear,80,2012-10-30 15:53:00
11:13 AM,33.8,19.4,56,30.25,10.0,ENE,9.2,-,N/A,,Clear,70,2012-10-30 16:13:00
11:32 AM,33.8,19.4,56,30.25,10.0,NNE,6.9,-,N/A,,Clear,30,2012-10-30 16:32:00
11:53 AM,35.6,19.4,52,30.24,10.0,NNE,6.9,-,N/A,,Clear,30,2012-10-30 16:53:00
12:12 PM,35.6,19.4,52,30.23,10.0,NE,5.8,-,N/A,,Clear,40,2012-10-30 17:12:00
12:33 PM,35.6,19.4,52,30.22,10.0,NNE,8.1,-,N/A,,Clear,20,2012-10-30 17:33:00
12:52 PM,35.6,15.8,44,30.21,10.0,NNE,9.2,-,N/A,,Clear,30,2012-10-30 17:52:00
1:13 PM,35.6,15.8,44,30.21,10.0,North,8.1,-,N/A,,Clear,10,2012-10-30 18:13:00
1:32 PM,37.4,15.8,41,30.20,10.0,NE,8.1,-,N/A,,Clear,50,2012-10-30 18:32:00
1:52 PM,37.4,15.8,41,30.19,10.0,NNE,6.9,-,N/A,,Clear,30,2012-10-30 18:52:00
2:13 PM,37.4,17.6,45,30.18,10.0,North,4.6,-,N/A,,Clear,10,2012-10-30 19:13:00
2:33 PM,37.4,19.4,48,30.17,10.0,North,4.6,-,N/A,,Clear,350,2012-10-30 19:33:00
2:52 PM,37.4,17.6,45,30.17,10.0,NNE,6.9,-,N/A,,Clear,30,2012-10-30 19:52:00
3:13 PM,37.4,17.6,45,30.16,10.0,NNE,6.9,-,N/A,,Clear,30,2012-10-30 20:13:00
3:32 PM,37.4,19.4,48,30.16,10.0,NE,6.9,-,N/A,,Clear,40,2012-10-30 20:32:00
3:53 PM,37.4,17.6,45,30.16,10.0,NNE,6.9,-,N/A,,Clear,30,2012-10-30 20:53:00
4:13 PM,37.4,17.6,45,30.15,10.0,NNE,5.8,-,N/A,,Clear,20,2012-10-30 21:13:00
4:32 PM,37.4,17.6,45,30.15,10.0,North,4.6,-,N/A,,Clear,350,2012-10-30 21:32:00
4:53 PM,37.4,15.8,41,30.14,10.0,North,4.6,-,N/A,,Clear,10,2012-10-30 21:53:00
5:13 PM,37.4,15.8,41,30.14,10.0,NNE,3.5,-,N/A,,Clear,20,2012-10-30 22:13:00
5:32 PM,35.6,17.6,48,30.14,10.0,Calm,Calm,-,N/A,,Clear,0,2012-10-30 22:32:00
5:53 PM,33.8,17.6,52,30.13,10.0,NNW,3.5,-,N/A,,Clear,340,2012-10-30 22:53:00
6:12 PM,33.8,17.6,52,30.13,10.0,Calm,Calm,-,N/A,,Clear,0,2012-10-30 23:12:00
6:33 PM,32.0,17.6,55,30.13,10.0,Calm,Calm,-,N/A,,Clear,0,2012-10-30 23:33:00
6:52 PM,30.2,19.4,64,30.13,10.0,Calm,Calm,-,N/A,,Clear,0,2012-10-30 23:52:00
7:13 PM,30.2,19.4,64,30.13,10.0,Calm,Calm,-,N/A,,Clear,0,2012-10-31 00:13:00
7:33 PM,30.2,19.4,64,30.12,10.0,Calm,Calm,-,N/A,,Clear,0,2012-10-31 00:33:00
7:52 PM,30.2,19.4,64,30.12,10.0,Calm,Calm,-,N/A,,Clear,0,2012-10-31 00:52:00
8:13 PM,30.2,19.4,64,30.11,10.0,Calm,Calm,-,N/A,,Clear,0,2012-10-31 01:13:00
8:33 PM,28.4,19.4,69,30.12,10.0,Calm,Calm,-,N/A,,Clear,0,2012-10-31 01:33:00
8:53 PM,28.4,19.4,69,30.11,10.0,Calm,Calm,-,N/A,,Clear,0,2012-10-31 01:53:00
9:12 PM,28.4,19.4,69,30.11,10.0,Calm,Calm,-,N/A,,Clear,0,2012-10-31 02:12:00
9:33 PM,28.4,19.4,69,30.11,10.0,Calm,Calm,-,N/A,,Clear,0,2012-10-31 02:33:00
9:52 PM,28.4,19.4,69,30.10,10.0,NNE,3.5,-,N/A,,Clear,20,2012-10-31 02:52:00
10:13 PM,28.4,19.4,69,30.10,10.0,NE,8.1,-,N/A,,Clear,40,2012-10-31 03:13:00
10:33 PM,28.4,19.4,69,30.09,10.0,ENE,5.8,-,N/A,,Clear,60,2012-10-31 03:33:00
10:52 PM,28.4,19.4,69,30.08,10.0,NE,5.8,-,N/A,,Clear,50,2012-10-31 03:52:00
11:13 PM,26.6,19.4,74,30.08,10.0,Calm,Calm,-,N/A,,Clear,0,2012-10-31 04:13:00
11:32 PM,24.8,19.4,80,30.07,10.0,Calm,Calm,-,N/A,,Clear,0,2012-10-31 04:32:00
11:53 PM,26.6,19.4,74,30.06,10.0,NE,4.6,-,N/A,,Clear,50,2012-10-31 04:53:00